[[{"header":{"parameterUnit":"m.s-1","parameterCategory":1,"la1":30.2991,"la2":30.254,"lo1":-89.0895,"lo2":-89.0444,"dy":0.0017,"dx":0.0017,"nx":28,"ny":28,"refTime":"2026-03-04T03:00:00:Z","depth":0,"parameterNumber":2,"parameterNumberName":"U-component_of_WINDS"},"data":[0,0,0,0,0,0,0,0,0,0,0,0,0,0,0,0,0,0,0,0,0,0,0,0,0,0,0,0,0,0,0,0,0,0,0,0,0,0,0,0,0,0,0,0,0,0,0,0,0,0,0,0,0,0,0,0,0,0,-3.3933,-3.3934,0,-3.4042,-3.4043,-3.4044,-3.4049,-3.4048,-3.4046,-3.4045,-3.4157,-3.4161,-3.4165,0,0,0,0,0,0,0,0,0,0,0,0,0,-3.3732,-3.3735,-3.3933,-3.3934,-3.3936,-3.4042,-3.4043,-3.4045,-3.4049,-3.4048,-3.4046,-3.4045,-3.4155,-3.416,-3.4165,0,0,0,0,0,0,0,0,0,0,0,0,0,-3.3827,-3.3736,-3.3933,-3.3951,-3.3954,-3.4041,-3.4043,-3.4045,-3.405,-3.4048,-3.4046,-3.4044,-3.4154,-3.416,-3.4166,-3.4243,0,0,-3.4185,-3.4188,0,0,0,0,0,0,0,0,-3.3822,-3.3835,-3.3947,-3.395,-3.3953,-3.403,-3.4013,-3.4111,-3.405,-3.4013,-3.4045,-3.4043,-3.4116,-3.4125,-3.415,-3.4248,-3.4253,-3.4186,-3.4189,-3.4192,-3.4194,0,0,0,0,0,0,0,-3.3815,-3.383,-3.3976,-3.3949,-3.3952,-3.3954,-3.3966,-3.4031,-3.4074,-3.4016,-3.4017,-3.403,-3.4117,-3.4144,-3.4152,-3.4254,-3.4185,-3.4191,-3.4195,-3.4197,-3.4422,-3.4424,0,0,0,0,0,0,-3.3805,-3.3825,-3.3973,-3.3979,-3.3881,-3.3959,-3.3972,-3.4007,-3.4073,-3.4082,-3.4031,-3.4029,-3.4134,-3.4145,-3.4156,-3.425,-3.4192,-3.4198,-3.4201,-3.442,-3.4423,-3.4425,0,0,0,0,0,0,-3.3801,-3.3818,-3.3968,-3.3902,-3.3922,-3.3965,-3.4004,-3.401,-3.4037,-3.4085,-3.4092,-3.405,-3.4133,-3.4148,-3.4221,-3.4254,-3.4201,-3.4206,-3.4417,-3.4421,-3.4424,-3.4439,0,0,0,0,0,0,-3.3795,-3.3817,-3.3846,-3.3903,-3.3925,-3.4031,-3.4006,-3.4014,-3.4047,-3.4046,-3.4105,-3.4112,-3.4133,-3.4212,-3.4228,-3.4262,-3.4211,-3.4414,-3.4419,-3.4423,-3.4436,-3.4443,-3.4448,0,0,0,0,0,-3.3788,-3.3846,-3.3847,-3.3865,-3.3962,-3.4033,-3.4045,-3.4067,-3.405,-3.408,-3.4111,-3.411,-3.4249,-3.422,-3.4237,-3.4274,-3.4412,-3.4418,-3.4422,-3.4433,-3.4441,-3.4448,0,0,0,0,0,0,-3.3791,-3.3853,-3.3856,-3.3934,-3.3978,-3.4033,-3.4071,-3.4075,-3.4125,-3.4122,-3.4148,-3.4161,-3.4234,-3.4262,-3.4228,-3.4352,-3.4329,-3.4337,-3.4331,-3.4339,-3.4345,-3.4336,-3.4216,0,0,0,0,0,-3.3801,-3.3852,-3.3905,-3.3969,-3.3991,-3.4027,-3.4059,-3.4072,-3.4119,-3.4138,-3.4174,-3.422,-3.4274,-3.4308,-3.4361,-3.4441,-3.4454,-3.4475,-3.4481,-3.4486,-3.4493,-3.4537,-3.4547,-3.4441,-3.4441,-3.4441,0,0,-3.3821,-3.3862,-3.3893,-3.397,-3.4006,-3.4059,-3.4043,-3.41,-3.414,-3.4146,-3.4218,-3.4247,-3.43,-3.4377,-3.4413,-3.4402,-3.4526,-3.4493,-3.4496,-3.45,-3.4544,-3.4554,-3.4562,-3.4445,-3.4444,-3.4444,0,0,-3.3885,-3.3922,-3.3979,-3.4016,-3.407,-3.4095,-3.4108,-3.4164,-3.4183,-3.4256,-3.4262,-3.4311,-3.4403,-3.444,-3.4471,-3.4552,-3.4553,-3.4569,-3.46,-3.4644,-3.4652,-3.4659,-3.4687,-3.4697,-3.4576,-3.4576,-3.4576,0,-3.3904,-3.3984,-3.4008,-3.4065,-3.4099,-3.4109,-3.4167,-3.4201,-3.427,-3.4293,-3.4281,-3.4398,-3.4434,-3.452,-3.454,-3.4565,-3.4582,-3.4561,-3.4649,-3.4657,-3.4664,-3.4691,-3.4701,-3.4577,-3.4577,-3.4577,-3.4577,0,-3.4003,-3.4059,-3.4099,-3.4165,-3.4204,-3.4261,-3.4294,-3.4331,-3.4342,-3.4368,-3.4442,-3.4487,-3.4548,-3.457,-3.4582,-3.4659,-3.465,-3.4643,-3.462,-3.4675,-3.47,-3.4711,-3.4579,-3.4579,-3.4578,-3.4578,0,0,-3.4069,-3.415,-3.4164,-3.4194,-3.4256,-3.43,-3.4359,-3.4419,-3.4449,-3.4498,-3.4547,-3.4626,-3.462,-3.4656,-3.4672,-3.471,-3.4771,-3.4699,-3.47,-3.4709,-3.4858,-3.4861,-3.4872,-3.4773,-3.4775,-3.4777,-3.4853,0,-3.4139,-3.4242,-3.4267,-3.4355,-3.4407,-3.4418,-3.447,-3.4514,-3.454,-3.4589,-3.4619,-3.4673,-3.4662,-3.4684,-3.4723,-3.4755,-3.48,-3.475,-3.4819,-3.4821,-3.4802,-3.4886,-3.4889,-3.4958,-3.4863,-3.4865,-3.4866,0,-3.4233,-3.4283,-3.4377,-3.4433,-3.4456,-3.4501,-3.4558,-3.4605,-3.4656,-3.4672,-3.4713,-3.4726,-3.4788,-3.4764,-3.4849,-3.4815,-3.4845,-3.4865,-3.4869,-3.4874,-3.4845,-3.4891,-3.498,-3.499,-3.4882,-3.4881,-3.488,0,-3.427,-3.4361,-3.4429,-3.4455,-3.4523,-3.4554,-3.4584,-3.4633,-3.4668,-3.4719,-3.4742,-3.48,-3.4831,-3.4876,-3.4904,-3.4884,-3.4988,-3.4966,-3.5003,-3.5002,-3.5022,-3.5019,-3.5115,-3.5045,-3.5045,-3.5045,-3.5044,0,-3.4343,-3.44,-3.4446,-3.4488,-3.4552,-3.458,-3.4643,-3.4673,-3.4717,-3.4765,-3.478,-3.4825,-3.4861,-3.4911,-3.4934,-3.5001,-3.5016,-3.5031,-3.5036,-3.5028,-3.5026,-3.5046,-3.5041,-3.5047,-3.5047,-3.5046,-3.5046,0,-3.4393,-3.4427,-3.4502,-3.456,-3.4576,-3.4621,-3.4671,-3.4712,-3.4741,-3.4801,-3.4817,-3.4861,-3.4921,-3.4955,-3.503,-3.5046,-3.512,-3.5124,-3.5102,-3.5104,-3.5139,-3.5134,-3.5248,-3.5264,-3.5186,-3.5187,-3.5187,0,-3.4437,-3.448,-3.4544,-3.4577,-3.4607,-3.4661,-3.4697,-3.4728,-3.4765,-3.4827,-3.4861,-3.4922,-3.4971,-3.5067,-3.5106,-3.5164,-3.5168,-3.5204,-3.5176,-3.5167,-3.5166,-3.5162,-3.5166,-3.5208,-3.5208,-3.5209,-3.5209,0,-3.451,-3.4525,-3.4576,-3.4633,-3.4676,-3.4723,-3.4769,-3.4796,-3.4835,-3.4876,-3.4937,-3.4976,-3.5053,-3.5113,-3.5175,-3.5206,-3.5214,-3.5218,-3.523,-3.5221,-3.5206,-3.5213,-3.5113,-3.5215,-3.5214,-3.5214,-3.5213,-3.5213,-3.4557,-3.4596,-3.4647,-3.4704,-3.4742,-3.4786,-3.4827,-3.4861,-3.4913,-3.4977,-3.4994,-3.5058,-3.511,-3.5193,-3.5226,-3.5278,-3.5271,-3.5288,-3.5292,-3.5295,-3.5295,-3.52,-3.5289,-3.5289,-3.5289,-3.5289,-3.5289,0,-3.4629,-3.4663,-3.4715,-3.4779,-3.4824,-3.4829,-3.4882,-3.4919,-3.4975,-3.5022,-3.5072,-3.5142,-3.5201,-3.5246,-3.5307,-3.5339,-3.5345,-3.5354,-3.535,-3.5358,-3.5298,-3.5281,-3.5349,-3.5349,-3.5349,-3.5349,-3.5349,-3.5349,-3.4671,-3.4738,-3.4759,-3.4846,-3.488,-3.4942,-3.4972,-3.5012,-3.505,-3.5128,-3.5177,-3.5207,-3.5253,-3.5318,-3.5372,-3.5384,-3.5405,-3.5413,-3.5425,-3.5368,-3.5362,-3.5355,-3.534,-3.5418,-3.5418,-3.548,-3.5481,-3.5481]},{"header":{"parameterUnit":"m.s-1","parameterCategory":1,"la1":30.2991,"la2":30.254,"lo1":-89.0895,"lo2":-89.0444,"dy":0.0017,"dx":0.0017,"nx":28,"ny":28,"refTime":"2026-03-04T03:00:00:Z","depth":0,"parameterNumber":3,"parameterNumberName":"V-component_of_WINDS"},"data":[0,0,0,0,0,0,0,0,0,0,0,0,0,0,0,0,0,0,0,0,0,0,0,0,0,0,0,0,0,0,0,0,0,0,0,0,0,0,0,0,0,0,0,0,0,0,0,0,0,0,0,0,0,0,0,0,0,0,1.554,1.554,0,1.5622,1.5623,1.5624,1.5662,1.5662,1.5662,1.5662,1.5744,1.5746,1.5748,0,0,0,0,0,0,0,0,0,0,0,0,0,1.5417,1.5419,1.554,1.5541,1.5542,1.5622,1.5623,1.5624,1.5662,1.5662,1.5662,1.5662,1.5743,1.5746,1.5748,0,0,0,0,0,0,0,0,0,0,0,0,0,1.5482,1.542,1.5539,1.557,1.5574,1.5621,1.5623,1.5624,1.5662,1.5662,1.5662,1.5662,1.5742,1.5745,1.5749,1.5771,0,0,1.5759,1.576,0,0,0,0,0,0,0,0,1.5478,1.5486,1.5565,1.5568,1.5572,1.5632,1.561,1.5673,1.5662,1.5629,1.5662,1.5662,1.5706,1.5713,1.5728,1.5775,1.5778,1.5759,1.5761,1.5763,1.5764,0,0,0,0,0,0,0,1.5473,1.5483,1.5572,1.5566,1.5571,1.5581,1.559,1.5622,1.5667,1.5631,1.5634,1.5644,1.5708,1.5725,1.573,1.5779,1.5759,1.5762,1.5764,1.5765,1.5852,1.5852,0,0,0,0,0,0,1.5464,1.5479,1.5569,1.5574,1.5524,1.5583,1.5593,1.5613,1.5667,1.5675,1.5644,1.5645,1.5719,1.5726,1.5733,1.5765,1.5763,1.5766,1.5768,1.5852,1.5852,1.5852,0,0,0,0,0,0,1.5461,1.5472,1.5566,1.5528,1.554,1.5585,1.5607,1.5614,1.5631,1.5676,1.5684,1.5652,1.5719,1.5729,1.5762,1.5768,1.5767,1.577,1.5851,1.5852,1.5852,1.5827,0,0,0,0,0,0,1.5457,1.547,1.5479,1.5527,1.5542,1.5593,1.5607,1.5616,1.5637,1.5639,1.5686,1.5694,1.572,1.5757,1.5766,1.5773,1.5773,1.5851,1.5852,1.5852,1.5828,1.5827,1.5826,0,0,0,0,0,1.5453,1.5467,1.5479,1.5489,1.5554,1.5593,1.5602,1.5633,1.5637,1.5646,1.5676,1.5692,1.5767,1.576,1.577,1.5779,1.5851,1.5851,1.5852,1.5828,1.5827,1.5826,0,0,0,0,0,0,1.5416,1.5474,1.5487,1.5518,1.5551,1.56,1.5612,1.563,1.5661,1.5662,1.5699,1.5709,1.574,1.5763,1.5755,1.5805,1.581,1.5813,1.5789,1.5788,1.5787,1.5781,1.5776,0,0,0,0,0,1.5412,1.5439,1.5488,1.551,1.5526,1.5566,1.5585,1.5606,1.5641,1.5655,1.5687,1.572,1.5752,1.5771,1.5802,1.5832,1.5844,1.5843,1.5842,1.5841,1.5843,1.5863,1.5864,1.5855,1.5855,1.5855,0,0,1.5402,1.5437,1.5452,1.5504,1.5532,1.556,1.5578,1.5606,1.5628,1.5659,1.5694,1.5718,1.5758,1.5791,1.5807,1.581,1.5848,1.5842,1.5841,1.5843,1.5864,1.5865,1.5866,1.5855,1.5855,1.5855,0,0,1.54,1.5429,1.5452,1.548,1.5523,1.5551,1.5556,1.5604,1.5622,1.5658,1.5683,1.5709,1.5762,1.579,1.5811,1.5824,1.5841,1.5833,1.5829,1.5848,1.5849,1.585,1.5857,1.5858,1.5835,1.5835,1.5835,0,1.5383,1.5427,1.5461,1.549,1.5513,1.5544,1.5569,1.5595,1.5645,1.5661,1.5665,1.5734,1.5762,1.5804,1.5807,1.5823,1.5832,1.5828,1.5846,1.5848,1.5849,1.5856,1.5858,1.5834,1.5834,1.5834,1.5834,0,1.5405,1.5435,1.5449,1.5499,1.5523,1.5549,1.5589,1.561,1.563,1.5657,1.5695,1.5731,1.5771,1.5783,1.5801,1.5828,1.5829,1.5839,1.5846,1.5848,1.5855,1.5858,1.5832,1.5833,1.5833,1.5833,0,0,1.5379,1.5451,1.5455,1.548,1.5531,1.5556,1.5585,1.5626,1.5644,1.5679,1.5705,1.575,1.5761,1.5785,1.5808,1.5825,1.5837,1.5834,1.5836,1.5834,1.587,1.5863,1.5865,1.5849,1.5849,1.585,1.5868,0,1.5385,1.5438,1.5472,1.5512,1.5542,1.5575,1.56,1.5635,1.5662,1.5692,1.5722,1.5755,1.5766,1.5781,1.5799,1.5831,1.5845,1.583,1.5874,1.5875,1.5863,1.5869,1.586,1.5875,1.587,1.5871,1.5871,0,1.5398,1.5434,1.5478,1.553,1.5544,1.5566,1.5608,1.5636,1.5677,1.5696,1.5725,1.5749,1.5783,1.5787,1.5834,1.5824,1.5844,1.5863,1.5864,1.587,1.5873,1.5875,1.588,1.5883,1.5875,1.5875,1.5875,0,1.5377,1.5437,1.5471,1.5491,1.5552,1.5567,1.5593,1.5635,1.5659,1.5696,1.5712,1.5752,1.5774,1.5805,1.584,1.5839,1.5884,1.5891,1.5902,1.5901,1.5909,1.5908,1.5918,1.5921,1.5921,1.5921,1.5921,0,1.538,1.5406,1.5463,1.5484,1.5515,1.5555,1.5584,1.5613,1.5651,1.5679,1.5709,1.5735,1.5779,1.5811,1.5839,1.5875,1.5884,1.5901,1.5908,1.5899,1.5897,1.5912,1.5913,1.5921,1.5921,1.5921,1.5921,0,1.5361,1.54,1.5441,1.5497,1.5511,1.5532,1.558,1.5602,1.5633,1.5668,1.5679,1.5726,1.5766,1.5804,1.5856,1.5875,1.5912,1.592,1.5898,1.5902,1.5911,1.591,1.5932,1.5938,1.5936,1.5936,1.5936,0,1.5361,1.5382,1.5441,1.5463,1.5489,1.5523,1.5549,1.5589,1.5614,1.5666,1.5683,1.5725,1.5761,1.5822,1.5861,1.5903,1.5913,1.5918,1.5919,1.591,1.5915,1.5914,1.5917,1.5917,1.5917,1.5917,1.5917,0,1.5357,1.5376,1.5412,1.5455,1.5485,1.5521,1.5558,1.5574,1.5623,1.565,1.5692,1.572,1.5775,1.5817,1.5864,1.5891,1.5912,1.5917,1.5922,1.5912,1.5899,1.5908,1.5896,1.5915,1.5916,1.5916,1.5916,1.5916,1.5348,1.5369,1.5415,1.5455,1.5488,1.5523,1.5548,1.5583,1.5619,1.5668,1.569,1.5732,1.5777,1.5842,1.5869,1.5904,1.5909,1.5915,1.5917,1.5918,1.5917,1.5893,1.5912,1.5912,1.5912,1.5912,1.5912,0,1.5347,1.5379,1.5415,1.5467,1.5499,1.5519,1.5562,1.5587,1.5625,1.5665,1.5701,1.575,1.5792,1.5836,1.5881,1.59,1.5912,1.5911,1.591,1.5917,1.5909,1.5901,1.5901,1.5901,1.5901,1.5901,1.5901,1.5901,1.535,1.5388,1.5414,1.547,1.5502,1.5545,1.5568,1.5601,1.5634,1.5688,1.5724,1.5753,1.5796,1.5844,1.5885,1.5897,1.5912,1.5909,1.5924,1.5916,1.5917,1.5917,1.591,1.5912,1.5912,1.5928,1.5928,1.5928]}]]